EA7NW Cordoba ES current weather conditions

sailwx.info

Wind from 160 at 2 knots gusting 7

Air temperature 30.6° C
Dewpoint 17.2° C

Last reported at 2014-Aug-20 19:30 UTC.
Time now 2014-Aug-20 20:34 UTC

Location: N 37°53' W 004°48'.
View on Google Maps.

See reports from other nearby stations

  
Tides and Currents Weather Stations Pressure Air Temp Water Temp Dewpoint Dewpoint Depression Visibility Wind Speed Wind Dir Waves Ship Positions
date/time (UTC)wind fromknots sea level pressurealtimeterstation pressurevisibilityair tempwater tempwave heightnotes
2014-Aug-20 19:30 160 2 gusting 7 30.6
2014-Aug-20 19:00 246 5 gusting 11 31.7
2014-Aug-20 18:45 160 4 gusting 10 32.2
2014-Aug-20 18:30 160 4 gusting 11 32.2
2014-Aug-20 18:15 205 5 gusting 11 32.8
2014-Aug-20 18:00 160 4 gusting 13 32.8
2014-Aug-20 17:15 160 6 gusting 13 32.8
2014-Aug-20 16:30 174 7 gusting 13 32.8
2014-Aug-20 16:00 070 4 gusting 12 32.2
2014-Aug-20 15:45 146 6 gusting 13 32.2
2014-Aug-20 15:30 115 7 gusting 13 31.7
2014-Aug-20 15:00 160 4 gusting 13 31.7
2014-Aug-20 14:30 250 4 gusting 11 30.6
2014-Aug-20 14:00 074 6 gusting 11 29.4
2014-Aug-20 13:45 070 6 gusting 11 29.4
2014-Aug-20 13:15 205 4 gusting 11 28.3
2014-Aug-20 13:00 115 5 gusting 13 27.8
2014-Aug-20 12:15 160 2 gusting 13 26.1
2014-Aug-20 11:01 196 2 gusting 10 23.3
2014-Aug-20 10:15 070 4 gusting 10 22.2
2014-Aug-20 10:00 205 4 gusting 11 21.1
2014-Aug-20 09:00 115 2 gusting 8 20.6
2014-Aug-20 08:45 070 2 gusting 7 20.6
2014-Aug-20 08:30 205 2 gusting 6 20.0
2014-Aug-20 08:00 160 2 gusting 7 20.0
2014-Aug-20 07:45 160 2 gusting 10 19.4
2014-Aug-20 07:30 115 4 gusting 8 19.4
2014-Aug-20 07:15 115 5 gusting 10 19.4
2014-Aug-20 06:30 205 4 gusting 11 18.9
2014-Aug-20 05:45 070 2 gusting 10 18.9
2014-Aug-20 05:30 160 5 gusting 10 18.9
2014-Aug-20 05:15 100 2 gusting 11 18.9
2014-Aug-20 04:30 205 4 gusting 8 19.4
2014-Aug-20 04:00 205 2 gusting 10 18.9
2014-Aug-20 03:15 340 4 gusting 8 18.9
2014-Aug-20 02:30 161 2 gusting 10 18.9
2014-Aug-20 01:45 136 4 gusting 11 19.4
2014-Aug-20 01:15 250 4 gusting 11 19.4
2014-Aug-20 00:45 203 6 gusting 11 20.0
2014-Aug-20 00:30 188 4 gusting 8 20.6
2014-Aug-20 00:15 250 2 gusting 10 20.6
2014-Aug-20 00:00 115 3 gusting 8 20.6
2014-Aug-19 23:45 205 4 gusting 8 20.6
2014-Aug-19 23:00 161 7 gusting 13 21.1
2014-Aug-19 22:46 205 5 gusting 13 21.7
2014-Aug-19 22:30 205 7 gusting 13 22.2
2014-Aug-19 21:30 160 6 gusting 17 23.9
2014-Aug-19 21:15 294 6 gusting 17 24.4
2014-Aug-19 20:45 115 7 gusting 19 25.6
2014-Aug-19 20:30 160 10 gusting 18 25.6
2014-Aug-19 20:00 205 7 gusting 18 27.2
2014-Aug-19 19:45 171 8 gusting 18 27.8
2014-Aug-19 19:30 205 7 gusting 17 28.3
2014-Aug-19 19:15 178 7 gusting 19 28.9
2014-Aug-19 19:00 205 6 gusting 18 29.4
2014-Aug-19 18:45 130 9 gusting 19 30.6
2014-Aug-19 18:00 205 7 gusting 18 31.7
2014-Aug-19 17:30 115 9 gusting 18 32.2
2014-Aug-19 17:15 204 7 gusting 20 32.2
2014-Aug-19 17:00 166 6 gusting 19 32.2
2014-Aug-19 16:45 164 8 gusting 19 32.2
2014-Aug-19 16:30 204 7 gusting 19 32.2
2014-Aug-19 16:00 162 7 gusting 17 32.2
2014-Aug-19 15:45 205 6 gusting 18 32.2
2014-Aug-19 15:30 146 7 gusting 15 32.2
2014-Aug-19 15:15 154 4 gusting 19 32.2
2014-Aug-19 15:00 205 7 gusting 18 31.7
2014-Aug-19 14:30 160 9 gusting 15 31.1
2014-Aug-19 14:15 176 5 gusting 17 31.1
2014-Aug-19 14:00 219 6 gusting 17 30.6
2014-Aug-19 13:45 205 8 gusting 15 30.0
2014-Aug-19 13:15 160 7 gusting 14 30.0
2014-Aug-19 12:30 070 6 gusting 14 28.9
2014-Aug-19 12:15 205 5 gusting 14 28.3
2014-Aug-19 12:00 214 6 gusting 13 28.3
2014-Aug-19 11:30 151 5 gusting 13 26.7
2014-Aug-19 10:45 160 7 gusting 13 25.6
2014-Aug-19 10:15 115 6 gusting 13 25.0
2014-Aug-19 10:00 117 4 gusting 13 25.0
2014-Aug-19 09:45 115 6 gusting 11 24.4
2014-Aug-19 09:30 295 6 gusting 13 23.9
2014-Aug-19 08:30 205 5 gusting 13 22.8
2014-Aug-19 08:15 160 6 gusting 13 22.8
2014-Aug-19 07:15 160 7 gusting 13 21.7
2014-Aug-19 07:00 113 8 gusting 13 21.7
2014-Aug-19 06:45 187 6 gusting 14 21.1
2014-Aug-19 06:30 160 6 gusting 13 21.1
2014-Aug-19 06:15 205 6 gusting 13 21.7
2014-Aug-19 06:00 160 6 gusting 12 21.1
2014-Aug-19 05:45 193 4 gusting 8 21.1
2014-Aug-19 05:30 115 2 gusting 6 21.7
2014-Aug-19 05:00 112 1 gusting 6 22.2
2014-Aug-19 04:45 185 2 gusting 6 22.2
2014-Aug-19 04:15 205 1 gusting 6 22.2
2014-Aug-19 04:00 205 4 gusting 7 22.2
2014-Aug-19 03:45 160 5 gusting 7 22.8
2014-Aug-19 02:45 142 4 gusting 8 23.3
2014-Aug-19 02:30 127 3 gusting 10 23.9
2014-Aug-19 02:00 205 5 gusting 11 23.9
2014-Aug-19 01:30 205 5 gusting 10 24.4
2014-Aug-19 01:15 150 5 gusting 13 24.4
2014-Aug-19 01:00 160 6 gusting 14 25.0
2014-Aug-19 00:45 205 5 gusting 13 25.0
2014-Aug-19 00:00 115 4 gusting 14 25.6
2014-Aug-18 23:45 115 6 gusting 14 26.1
2014-Aug-18 22:30 205 4 gusting 14 28.3
2014-Aug-18 22:15 203 6 gusting 13 28.3
2014-Aug-18 22:00 212 3 gusting 11 28.9
2014-Aug-18 21:45 205 4 gusting 12 28.9
2014-Aug-18 21:15 127 5 gusting 8 29.4
2014-Aug-18 20:30 160 2 gusting 6 30.6
2014-Aug-18 20:15 160 5 gusting 8 30.6
2014-Aug-18 20:00 135 5 gusting 11 31.1